RH
27 30 33 36 39 39 39 43 45 41 40 45 46 41 48 64 71 80 81 79 84 82 85 84 65 53 43 44 44 43 40 33 25 21 19 18 19 18 18 18 19 19 20
26 29 29 32 37 40 39 41 45 44 44 44 44 42 46 62 75 83 83 81 88 82 87 66 57 46 45 46 46 42 38 31 25 21 20 20 20 20 21 21 22 22 22
19 22 28 30 32 36 37 38 44 46 46 48 46 44 48 61 75 84 86 84 83 77 77 65 51 47 48 48 44 40 35 28 24 23 22 22 22 21 23 23 24 23 23
23 19 19 27 32 31 33 36 42 47 47 51 50 48 47 56 68 79 83 85 88 73 78 55 48 49 49 48 44 40 34 28 25 24 23 23 23 23 24 25 25 23 21
27 24 19 21 31 34 34 37 42 47 48 52 53 56 54 60 71 77 83 84 75 65 58 52 51 50 51 49 47 40 35 30 28 26 25 25 25 24 24 25 23 22 21
27 27 26 21 28 37 38 40 42 46 49 52 54 59 61 69 74 78 78 77 62 59 54 52 53 53 53 52 47 42 36 31 28 26 27 26 27 27 26 27 26 25 21
26 26 27 25 28 37 39 40 45 46 50 54 55 61 63 66 70 72 72 67 64 57 52 54 55 57 57 54 48 45 36 31 28 28 28 29 28 27 26 26 25 24 22
25 32 28 28 28 36 38 43 48 50 52 56 58 61 64 62 69 68 63 58 54 52 55 58 60 60 58 55 50 44 34 31 31 31 31 29 28 27 26 25 25 24 22
27 32 31 31 32 34 39 48 52 53 56 60 63 64 66 64 65 62 54 50 54 57 59 62 62 60 60 56 50 41 33 34 34 32 30 28 28 26 25 25 25 26 23
30 30 32 35 36 38 40 47 56 54 59 65 66 70 70 66 64 57 53 56 58 61 64 64 62 64 61 53 48 38 38 34 32 30 30 29 26 26 25 24 23 22 23
32 33 39 39 39 40 45 53 59 60 64 68 71 73 71 67 59 55 56 59 62 65 66 66 66 64 56 52 47 41 35 33 31 31 29 27 27 25 22 20 19 18 21
34 40 44 41 43 47 52 61 63 66 68 74 73 69 67 62 57 57 60 63 66 68 69 69 67 58 54 52 48 40 33 32 32 30 28 27 24 21 20 18 18 21 24
42 52 52 52 48 51 56 66 67 68 71 74 70 64 61 59 58 60 63 67 70 71 72 71 61 58 58 53 43 37 33 32 31 29 28 25 22 21 19 20 23 24 26
57 57 58 55 54 58 67 72 69 70 70 69 63 61 60 59 61 64 68 71 74 75 73 65 62 63 55 43 38 33 33 32 30 28 25 23 22 20 21 26 30 30 29
62 62 58 58 60 66 73 76 74 70 68 65 62 61 59 63 66 70 73 77 78 73 67 68 67 56 45 38 33 34 32 31 29 25 23 22 20 22 25 29 30 31 31
70 66 67 68 70 76 79 77 72 68 66 64 59 59 64 68 72 76 79 81 72 72 75 69 54 44 37 36 35 32 31 30 25 25 22 20 21 20 22 23 31 34 39
80 78 78 79 79 79 77 73 68 65 62 59 62 67 71 75 78 82 80 71 78 78 67 51 40 38 38 36 33 32 29 25 25 21 20 22 21 20 21 23 31 35 39
76 76 75 74 73 70 67 64 62 59 61 66 70 73 76 80 82 73 76 83 78 64 46 40 41 39 37 34 33 29 26 25 20 20 21 20 21 23 30 32 36 33 37
75 74 71 68 65 63 61 62 64 68 71 73 75 79 81 74 78 82 83 76 58 43 42 41 40 37 36 34 30 28 24 21 21 20 20 22 25 28 33 41 37 38 42
71 70 71 71 71 70 69 69 70 72 75 78 78 75 81 82 82 83 70 51 43 43 41 41 38 38 35 31 29 22 23 25 22 21 23 24 27 33 36 39 42 46 72
79 80 80 77 74 72 71 71 72 75 76 76 81 83 84 82 76 62 45 43 42 41 41 39 40 36 32 28 21 18 24 23 24 23 23 24 28 36 38 42 52 77 82
79 79 77 75 73 73 74 75 75 76 84 86 84 81 75 67 53 44 42 41 42 40 41 42 38 34 28 21 18 17 23 23 25 27 25 27 35 33 38 55 76 80 74
82 81 81 80 80 78 77 84 87 85 82 78 75 74 59 51 44 42 42 42 38 42 43 38 34 27 21 18 16 17 21 23 28 27 26 28 28 32 56 70 69 66 69
82 81 79 78 78 83 85 84 78 75 76 74 62 58 49 44 42 41 39 38 43 45 39 34 27 22 18 16 17 21 22 27 27 27 26 25 32 54 64 65 65 70 70
79 81 82 83 84 81 76 75 75 71 62 58 54 47 44 42 41 38 39 44 46 41 35 28 23 20 17 18 23 25 28 32 32 31 25 29 49 59 63 65 69 69 71
83 84 82 77 73 72 73 72 63 58 55 51 46 44 42 40 38 39 45 48 43 35 29 24 20 17 17 19 25 24 27 28 30 26 27 43 54 59 62 65 66 70 76